Regional Weather Roundup
Issued by NWS

Home | Current Version | Previous Version | Graphics & Text | Print | Product List | Glossary On
Versions: 1 2 3 4 5 6 7 8 9 10 11 12 13 14 15 16 17 18 19 20 21 22 23 24 25 26 27 28 29 30 31 32 33 34 35 36 37 38 39 40 41 42 43 44 45 46 47 48 49 50
000
ASUS45 KBOU 240410
RWRCO

WEATHER ROUNDUP FOR COLORADO
NATIONAL WEATHER SERVICE PUEBLO CO
1000 PM MDT MON APR 23 2018

NOTE: "FAIR" INDICATES FEW OR NO CLOUDS BELOW 12000 FEET WITH NO
SIGNIFICANT WEATHER AND/OR OBSTRUCTIONS TO VISIBILITY.

COZ001>005-013-030-031-240500-
...NORTHWEST COLORADO...

CITY           SKY/WX    TMP DP  RH WIND       PRES   REMARKS
CRAIG          MOCLDY    49  33  54 NW9       30.17R
HAYDEN         MOCLDY    47  28  47 W9        30.17
MEEKER         CLOUDY    55  19  24 W5        30.18R
RABBIT EARS PA NOT AVBL
STEAMBOAT SPGS FAIR      46  35  66 E7        30.17R
WALDEN         FAIR      37  30  75 N18G29    30.25R
$$

COZ006>008-011-240500-
...WEST CENTRAL VALLEYS...

CITY           SKY/WX    TMP DP  RH WIND       PRES   REMARKS
GRAND JUNCTION CLOUDY    67  29  24 NW26G39   30.07R
MONTROSE       CLOUDY    65  23  20 NW21G30   30.11R
EAGLE          CLOUDY    55  33  43 E10       30.16R
RIFLE          CLOUDY    64  21  19 NW29G37   30.12R
DELTA          NOT AVBL
NUCLA          CLOUDY    63  23  22 NW10      30.13R
$$

COZ017>023-064>068-240500-
...SOUTHWEST COLORADO...

CITY           SKY/WX    TMP DP  RH WIND       PRES   REMARKS
DURANGO        MOCLDY    52  11  19 CALM      30.12S
CORTEZ         PTCLDY    52  16  24 E8        30.09R
PAGOSA SPRINGS FAIR      50   8  18 CALM      30.19S
TELLURIDE      CLOUDY    53  15  22 CALM      30.28S
WOLF CREEK PAS CLEAR     36   9  32 S12       30.45S
$$

COZ009-010-012-014-032>034-037-058>063-240500-
...CENTRAL COLORADO...

CITY           SKY/WX    TMP DP  RH WIND       PRES   REMARKS
ASPEN          CLOUDY    53  26  35 NW18G28   30.19R
BUENA VISTA    FAIR      48  24  39 W9        30.18S
COPPER MTN     NOT AVBL
BERTHOUD PASS  MOCLDY    27  16  63 NW5       30.40R WCI  21
COTTONWOOD PAS MOCLDY    52  19  28 NW5       30.28S
GUNNISON       MOCLDY    50  23  34 NW6       30.19R
KREMMLING      MOCLDY    50  36  57 SE6       30.22R
LEADVILLE      MOCLDY    41  20  43 S3        30.26S
MONARCH PASS   PTCLDY    36  19  51 W18       30.48S
SALIDA         FAIR      54  23  30 W7        30.23R
SUNLIGHT       CLOUDY    34  23  64 W10G29    30.35S WCI  26
WILKERSON PASS CLOUDY    41  18  38 CALM      30.39R
$$

COZ069>075-240500-
...SAN LUIS VALLEY/SANGRE DE CRISTO MOUNTAINS...

CITY           SKY/WX    TMP DP  RH WIND       PRES   REMARKS
ALAMOSA        PTCLDY    49  19  30 S10       30.15R
DEL NORTE      FAIR      49  17  28 SW8       30.19R
LA VETA PASS   MOCLDY    45  21  39 S6        30.40S
SAGUACHE       NOT AVBL
$$

COZ035-036-038>040-240500-
...NORTHERN COLORADO FRONT RANGE...

CITY           SKY/WX    TMP DP  RH WIND       PRES   REMARKS
DENVER INTL AP MOCLDY    46  41  82 N32G40    30.17R
DMNS CITY PARK NOT AVBL
AURORA         MOCLDY    46  42  86 NE22G33   30.18R
FRONT RANGE AP FAIR      47  43  84 N26G37    30.18R
ERIE MUNI ARPT FAIR      50  40  68 N22G33    30.22R
BOULDER MUN AP FAIR      50  41  71 NE20      30.20R
CENTENNIAL     CLOUDY    50  42  74 N20G33    30.18R
BROOMFIELD     MOCLDY    52  41  66 N16G29    30.17R
LOVELAND       LGT RAIN  43  38  82 N28G41    30.20R
LONGMONT       FAIR      49  40  71 NE18G26   30.19R
$$

COZ041-046-047-076>085-087-088-240500-
...PIKES PEAK/PALMER DIVIDE AND SOUTHERN FOOTHILLS...

CITY           SKY/WX    TMP DP  RH WIND       PRES   REMARKS
COLO. SPRINGS  CLOUDY    55  38  52 NW3       30.12R
A. F. ACADEMY  CLOUDY    51  37  59 CALM      30.14R
SCHRIEVER AFB  NOT AVBL
CHEYENNE MTN   NOT AVBL
ELLICOTT         N/A    N/A N/A N/A E13       30.10R
FALCON         FAIR      50  35  55 E3        30.16R
FORT CARSON    CLOUDY    57  38  49 CALM      30.09R
LIMON          CLOUDY    48  41  76 CALM      30.09R
MONUMENT HILL  CLOUDY    43  36  75 N5        30.18R
CANON CITY     FAIR      57  41  54 N7        30.06R
WALSENBURG     FAIR      59  30  33 N9        30.08R
TRINIDAD       PTCLDY    52  30  43 N5        30.05R
$$

COZ042>045-048>051-090-091-240500-
...NORTHEAST COLORADO...

CITY           SKY/WX    TMP DP  RH WIND       PRES   REMARKS
GREELEY ARPT   CLOUDY    44  36  73 N30G40    30.18R
AKRON          CLOUDY    48  45  89 N17G32    30.15R
BURLINGTON     CLEAR     48  41  76 SE10      30.06R
WRAY           MOCLDY    55  41  58 SE18      30.02F
YUMA           NOT AVBL
STERLING       NOT AVBL
HOLYOKE        MOCLDY    55  43  62 W3        30.11R
FORT MORGAN    CLOUDY    45  38  78 N32G41    30.15R
$$

COZ086-089-092>099-240500-
...SOUTHEAST COLORADO...

CITY           SKY/WX    TMP DP  RH WIND       PRES   REMARKS
PUEBLO         PTCLDY    60  40  47 N8        30.01R
LA JUNTA       CLEAR     60  42  51 E9        29.99R
LAMAR          CLEAR     55  42  61 E7        30.00
SPRINGFIELD      N/A     50  42  74 S9        30.05R
$$





USA.gov is the U.S. government's official web portal to all federal, state and local government web resources and services.